This demonstration page uses our WeatherBlox Daily Observations layout. Learn more.

Left ArrowRight Arrow

Hourly Observations for February 8, 2017

Temp ( °F °C ) Dew Point ( °F °C ) Humidity (%) Winds ( mph kmh ) Pressure ( in mb ) Visibility ( mi km ) Precip ( " mm )
12:53 am 00:53 Clear 57 13.9 35 1.7 44 44 WSW 12 19 29.76 1008 10 16 0.00 0.00
1:53 am 01:53 Clear 53 11.7 36 2.2 52 52 W 9 15 29.76 1008 10 16 0.00 0.00
2:53 am 02:53 Clear 51 10.6 36 2.2 56 56 NW 9 15 29.78 1009 10 16 0.00 0.00
3:53 am 03:53 Clear 50 10 37 2.8 61 61 W 9 15 29.78 1009 10 16 0.00 0.00
4:53 am 04:53 Clear 53 11.7 37 2.8 55 55 W 14 22 29.77 1008 10 16 0.00 0.00
5:53 am 05:53 Clear 53 11.7 38 3.3 57 57 WSW 14 22 29.78 1009 10 16 0.00 0.00
6:53 am 06:53 Clear 51 10.6 38 3.3 61 61 W 10 17 29.82 1010 10 16 0.00 0.00
7:53 am 07:53 Sunny 48 8.9 37 2.8 66 66 W 7 11 29.86 1011 10 16 0.00 0.00
8:53 am 08:53 Sunny 55 12.8 38 3.3 53 53 W 14 22 29.86 1011 10 16 0.00 0.00
9:53 am 09:53 Sunny 66 18.9 37 2.8 34 34 WNW 17 28 29.90 1012 10 16 0.00 0.00
10:53 am 10:53 Sunny 72 22.2 35 1.7 26 26 WNW 12 19 29.91 1013 10 16 0.00 0.00
11:53 am 11:53 Sunny 75 23.9 36 2.2 24 24 W 10 17 29.93 1013 10 16 0.00 0.00
12:53 pm 12:53 Sunny 78 25.6 30 -1.1 17 17 NW 23 37 29.91 1013 10 16 0.00 0.00
1:53 pm 13:53 Sunny 79 26.1 30 -1.1 17 17 NW 23 37 29.89 1012 10 16 0.00 0.00
2:53 pm 14:53 Sunny 80 26.7 29 -1.7 15 15 N 16 26 29.89 1012 10 16 0.00 0.00
3:53 pm 15:53 Sunny 82 27.8 28 -2.2 14 14 NNW 9 15 29.90 1013 10 16 0.00 0.00
4:53 pm 16:53 Sunny 82 27.8 27 -2.8 13 13 N 15 24 29.91 1013 10 16 0.00 0.00
5:53 pm 17:53 Sunny 78 25.6 28 -2.2 16 16 N 10 17 29.93 1014 10 16 0.00 0.00
6:53 pm 18:53 Partly Cloudy 66 18.9 33 0.6 29 29 ENE 23 37 29.99 1016 8 13 0.00 0.00
7:04 pm 19:04 Mostly Cloudy 64 18 32 0 30 30 E 24 39 30.00 1016 9 14 0.00 0.00
7:11 pm 19:11 Partly Cloudy 65 18.3 32 0 29 29 E 18 30 30.00 1016 10 16 0.00 0.00
7:53 pm 19:53 Clear 62 16.7 31 -0.6 31 31 E 18 30 30.06 1018 10 16 0.00 0.00
8:53 pm 20:53 Clear 59 15 27 -2.8 29 29 E 16 26 30.10 1019 10 16 0.00 0.00
9:53 pm 21:53 Clear 55 12.8 28 -2.2 35 35 ESE 10 17 30.12 1020 10 16 0.00 0.00
10:53 pm 22:53 Clear 53 11.7 25 -3.9 34 34 ESE 9 15 30.13 1020 10 16 0.00 0.00
11:53 pm 23:53 Clear 49 9.4 25 -3.9 39 39 E 6 9 30.15 1021 10 16 0.00 0.00

Powered by AerisWeather